Miscellaneous Local Product
Issued by NWS North Platte, NE

Home | Current Version | Previous Version | Graphics & Text | Print | Product List | Glossary On
Versions: 1 2 3 4 5 6 7 8 9 10 11 12 13 14 15 16 17 18 19 20 21 22 23 24 25 26 27 28 29 30 31 32 33 34 35 36 37 38 39 40 41 42 43 44 45 46 47 48 49 50
000
AXUS43 KLBF 281410
MISLBF


WESTERN AND NORTH CENTRAL NEBRASKA HOURLY WEATHER ROUNDUP
NATIONAL WEATHER SERVICE NORTH PLATTE NE
900 AM CDT TUE JUL 28 2015

***STATIONS NOT REPORTING VARIABLES SUCH AS SKY/WEATHER OR
PRESSURE ARE PROVIDED BY THE NEBRASKA DEPARTMENT OF
ROADS...RAWS...AND APRS NETWORKS...AND ARE NOT UNDER
NATIONAL WEATHER SERVICE QUALITY CONTROL***

...OBSERVATIONS IN AND NEAR THE EASTERN PANHANDLE OF NEBRASKA...

CITY           SKY/WX    TMP DP  RH WIND       PRES   REMARKS
PINE RIDGE     SUNNY     60  47  61 W14       30.03R
CHADRON        SUNNY     60  46  59 W13       30.06R
ALLIANCE       SUNNY     61  47  59 NW10      30.07R
SIDNEY         SUNNY     64  47  53 N13       30.09R
BIG SPRINGS      N/A     65  50  58 NW5         N/A
$$

...OBSERVATIONS IN NORTH CENTRAL NEBRASKA...

CITY           SKY/WX    TMP DP  RH WIND       PRES   REMARKS
VALENTINE      SUNNY     66  50  56 NW15G22   29.95R
THEDFORD       SUNNY     67  54  63 NW15      29.98R
AINSWORTH      SUNNY     65  51  59 NW14G21   29.97R
O`NEILL        CLOUDY    67  62  84 NW17      29.93R
ORD            MOSUNNY   69  59  70 N17G28    29.89R
BROKEN BOW     SUNNY     69  54  58 N17G23    29.93R
SPRINGVIEW       N/A     64  53  67 NW5G15      N/A
CHAMBERS         N/A     72  60  66 N8          N/A
EWING            N/A     70  68  93 N7          N/A
$$

...OBSERVATIONS IN SOUTHWEST NEBRASKA AND FAR NORTHEAST COLORADO...

CITY           SKY/WX    TMP DP  RH WIND       PRES   REMARKS
WRAY           FAIR      71  43  36 NW17G24   30.05R
HOLYOKE        FAIR      70  43  37 N16G23    30.05R
IMPERIAL       SUNNY     68  50  52 N21       30.00R
OGALLALA       SUNNY     67  51  56 NW13G21   30.02R
NORTH PLATTE   SUNNY     69  50  50 N14       29.97R
MCCOOK         SUNNY     74  56  53 N24       29.92R
LEXINGTON      SUNNY     71  58  64 N21       29.92R
PAXTON           N/A     67  58  72 NW9         N/A
BRADY            N/A     69  51  53 S3G14       N/A
CALLAWAY         N/A     68  55  63 N20         N/A
$$

...NORTH PLATTE AREA...

CITY           SKY/WX    TMP DP  RH WIND       PRES   REMARKS
AIRPORT        SUNNY     69  50  50 N14       29.97R
DOWNTOWN         N/A     69  53  57 NW8         N/A
SANDRIDGE        N/A     69  53  55 N7G16       N/A
HILLCREST        N/A     69  53  55 N16G24      N/A
$$

...SOME WEATHER OBSERVATIONS FROM AROUND THE REGION...

CITY           SKY/WX    TMP DP  RH WIND       PRES   REMARKS
DENVER         MOSUNNY   64  33  31 SE13      30.14R
LARAMIE        SUNNY     53  32  44 S5        30.24S
CHEYENNE       SUNNY     59  34  39 W13       30.19R
SCOTTSBLUFF    SUNNY     61  51  70 NW8       30.08R
RAPID CITY     SUNNY     63  45  51 NW12      29.99R
PIERRE         SUNNY     65  52  62 W25G35    29.88R
WINNER         FAIR      65  54  67 NW21G28   29.93R
SIOUX FALLS    CLOUDY    73  67  81 S13       29.81F
OMAHA          CLOUDY    73  70  90 NE17      29.88F THUNDER
GRAND ISLAND   MOSUNNY   82  71  69 SW12      29.83R
KANSAS CITY    MOSUNNY   85  75  72 S10       29.90R HX  93
WICHITA        MOSUNNY   84  68  58 S15       29.88S
HAYS           MOSUNNY   82  64  54 SW18      29.83R
LIBERAL        MOSUNNY   81  64  57 SW14      29.92R
GOODLAND       SUNNY     70  49  47 N26G35    30.01R
$$



USA.gov is the U.S. government's official web portal to all federal, state and local government web resources and services.